sat.trackr.live / text

‹ back to catalog

STARLINK-31846

NORAD 60126 · 2024-118P

PAYLOAD ACTIVE UNKNOWN

§ Identity

Operator
Country
US
Launch date
2024-06-24
Launch site
AFWTR
Launch vehicle
Mass (kg)
RCS (m²)

Purposes: comms

External: N2YO · Heavens-Above · Gunter

§ Orbital elements

Epoch: 2026-05-24T22:57:37.197792Z

Period
94.11 min
Inclination
53.1606°
Eccentricity
0.0001302
Mean motion
15.30193139 rev/d
Perigee alt
474.3 km
Apogee alt
476.1 km
Semi-major
6,853.4 km
B*
6.2781e-5
RAAN
32.4361°
Arg perigee
83.7718°
Mean anomaly
276.3431°
Rev number
10,737

§ Raw data

STARLINK-318461 60126U 24118P   26144.95668053  .00001500  00000+0  62781-4 0  99932 60126  53.1606  32.4361 0001302  83.7718 276.3431 15.30193139107376

JSON: /api/v1/satellites/60126 · /tle

For live sub-satellite position, see the globe view (requires WebGL).

§ Visibility from observer

Set your observer location to see the next 7 days of passes ≥ 10°. The values pass through the URL so the page stays shareable.

No JS? Fill the form by hand. The geolocation button needs JavaScript.